When you browse on this site, cookies collect data to enhance your experience and personalize the content and advertising you see.
Visit our Privacy Policy to learn more. By continuing to use the site, you agree to this use of cookies and data.
EN

Hourly Weather Gogolevo

Today, 22 September, Tuesday

Time Temperature Precipitation Wind Pressure Humidity
00:00 +11°C° 0 mm 4 mps 743 mmHg 86%
01:00 +11°C° 0 mm 4 mps 743 mmHg 86%
02:00 +11°C° 0 mm 4 mps 742 mmHg 88%
03:00 +11°C° 0 mm 4 mps 742 mmHg 88%
04:00 +11°C° 0 mm 4 mps 742 mmHg 89%
05:00 +10°C° 0 mm 5 mps 741 mmHg 89%
06:00 +12°C° 0 mm 5 mps 742 mmHg 85%
07:00 +12°C° 0 mm 5 mps 742 mmHg 80%
08:00 +13°C° 0 mm 6 mps 742 mmHg 75%
09:00 +13°C° 0 mm 6 mps 742 mmHg 71%
10:00 +14°C° 0 mm 6 mps 742 mmHg 67%
11:00 +15°C° 0 mm 6 mps 742 mmHg 64%
12:00 +16°C° 0 mm 6 mps 742 mmHg 62%
13:00 +16°C° 0 mm 6 mps 742 mmHg 60%
14:00 +17°C° 0 mm 6 mps 742 mmHg 57%
15:00 +16°C° 0 mm 5 mps 742 mmHg 62%
16:00 +15°C° 0 mm 4 mps 742 mmHg 66%
17:00 +14°C° 0 mm 3 mps 742 mmHg 70%
18:00 +13°C° 0 mm 3 mps 743 mmHg 71%
19:00 +12°C° 0 mm 3 mps 743 mmHg 73%
20:00 +12°C° 0 mm 3 mps 744 mmHg 74%
21:00 +11°C° 0 mm 3 mps 744 mmHg 77%
22:00 +11°C° 0 mm 3 mps 744 mmHg 79%
23:00 +10°C° 0 mm 3 mps 744 mmHg 82%

Tomorrow, 23 September, Wednesday

Time Temperature Precipitation Wind Pressure Humidity
00:00 +9°C° 0 mm 2 mps 744 mmHg 86%
01:00 +9°C° 0 mm 2 mps 744 mmHg 90%
02:00 +8°C° 0 mm 2 mps 745 mmHg 94%
03:00 +8°C° 0 mm 2 mps 745 mmHg 94%
04:00 +7°C° 0 mm 2 mps 745 mmHg 95%
05:00 +7°C° 0 mm 2 mps 745 mmHg 96%
06:00 +9°C° 0 mm 2 mps 745 mmHg 91%
07:00 +10°C° 0 mm 2 mps 746 mmHg 87%
08:00 +12°C° 0 mm 2 mps 746 mmHg 83%
09:00 +14°C° 0 mm 2 mps 746 mmHg 77%
10:00 +16°C° 0 mm 2 mps 746 mmHg 70%
11:00 +18°C° 0 mm 2 mps 746 mmHg 64%
12:00 +19°C° 0 mm 2 mps 746 mmHg 62%
13:00 +19°C° 0 mm 2 mps 746 mmHg 60%
14:00 +20°C° 0 mm 3 mps 746 mmHg 57%
15:00 +19°C° 0 mm 2 mps 745 mmHg 64%
16:00 +18°C° 0 mm 2 mps 745 mmHg 71%
17:00 +16°C° 0 mm 2 mps 745 mmHg 78%
18:00 +15°C° 0 mm 2 mps 745 mmHg 83%
19:00 +14°C° 0 mm 2 mps 745 mmHg 88%
20:00 +13°C° 0 mm 2 mps 745 mmHg 93%
21:00 +13°C° 0 mm 2 mps 745 mmHg 94%
22:00 +13°C° 0 mm 2 mps 745 mmHg 94%
23:00 +13°C° 0 mm 2 mps 745 mmHg 95%

Day after tomorrow, 24 September, Thursday

Time Temperature Precipitation Wind Pressure Humidity
00:00 +12°C° 0 mm 2 mps 745 mmHg 96%
01:00 +12°C° 0 mm 2 mps 746 mmHg 96%
02:00 +12°C° 0 mm 2 mps 746 mmHg 96%
03:00 +12°C° 0 mm 2 mps 746 mmHg 96%
04:00 +10°C° 0 mm 2 mps 746 mmHg 96%
05:00 +10°C° 0 mm 2 mps 746 mmHg 96%
06:00 +12°C° 0 mm 2 mps 746 mmHg 89%
07:00 +13°C° 0 mm 2 mps 746 mmHg 83%
08:00 +13°C° 0 mm 3 mps 746 mmHg 76%
09:00 +16°C° 0 mm 3 mps 746 mmHg 69%
10:00 +18°C° 0 mm 3 mps 747 mmHg 62%
11:00 +20°C° 0 mm 3 mps 747 mmHg 55%
12:00 +20°C° 0 mm 3 mps 747 mmHg 53%
13:00 +21°C° 0 mm 3 mps 747 mmHg 50%
14:00 +21°C° 0 mm 3 mps 747 mmHg 48%
15:00 +19°C° 0 mm 3 mps 747 mmHg 55%
16:00 +18°C° 0 mm 2 mps 747 mmHg 62%
17:00 +16°C° 0 mm 2 mps 747 mmHg 70%
18:00 +15°C° 0 mm 2 mps 747 mmHg 74%
19:00 +14°C° 0 mm 2 mps 747 mmHg 79%
20:00 +13°C° 0 mm 2 mps 747 mmHg 83%
21:00 +12°C° 0 mm 2 mps 747 mmHg 85%
22:00 +12°C° 0 mm 2 mps 747 mmHg 87%
23:00 +12°C° 0 mm 2 mps 748 mmHg 89%

25 September, Friday

Time Temperature Precipitation Wind Pressure Humidity
00:00 +10°C° 0 mm 2 mps 748 mmHg 89%
01:00 +10°C° 0 mm 2 mps 748 mmHg 89%
02:00 +10°C° 0 mm 2 mps 748 mmHg 90%
03:00 +10°C° 0 mm 2 mps 748 mmHg 90%
04:00 +9°C° 0 mm 2 mps 748 mmHg 90%
05:00 +9°C° 0 mm 2 mps 748 mmHg 90%
06:00 +10°C° 0 mm 2 mps 748 mmHg 85%
07:00 +12°C° 0 mm 3 mps 748 mmHg 79%
08:00 +13°C° 0 mm 3 mps 748 mmHg 74%
09:00 +14°C° 0 mm 3 mps 748 mmHg 69%
10:00 +17°C° 0 mm 3 mps 748 mmHg 64%
11:00 +19°C° 0 mm 3 mps 748 mmHg 59%
12:00 +19°C° 0 mm 3 mps 748 mmHg 57%
13:00 +20°C° 0 mm 3 mps 748 mmHg 55%
14:00 +21°C° 0 mm 3 mps 748 mmHg 53%
15:00 +19°C° 0 mm 3 mps 748 mmHg 60%
16:00 +18°C° 0 mm 3 mps 747 mmHg 67%
17:00 +16°C° 0 mm 2 mps 747 mmHg 75%
18:00 +16°C° 0 mm 3 mps 747 mmHg 77%
19:00 +14°C° 0 mm 3 mps 747 mmHg 79%
20:00 +13°C° 0 mm 3 mps 748 mmHg 82%
21:00 +13°C° 0 mm 3 mps 748 mmHg 84%
22:00 +13°C° 0 mm 2 mps 748 mmHg 86%
23:00 +13°C° 0 mm 2 mps 748 mmHg 88%

26 September, Saturday

Time Temperature Precipitation Wind Pressure Humidity
00:00 +12°C° 0 mm 2 mps 748 mmHg 90%
01:00 +12°C° 0 mm 2 mps 748 mmHg 92%
02:00 +10°C° 0 mm 2 mps 748 mmHg 95%
03:00 +10°C° 0 mm 2 mps 748 mmHg 95%
04:00 +10°C° 0 mm 2 mps 748 mmHg 95%
05:00 +10°C° 0 mm 2 mps 748 mmHg 95%
06:00 +11°C° 0 mm 3 mps 748 mmHg 90%
07:00 +12°C° 0 mm 3 mps 748 mmHg 84%
08:00 +13°C° 0 mm 3 mps 748 mmHg 78%
09:00 +16°C° 0 mm 3 mps 749 mmHg 72%
10:00 +18°C° 0 mm 3 mps 749 mmHg 66%
11:00 +19°C° 0 mm 4 mps 749 mmHg 60%
12:00 +20°C° 0 mm 4 mps 749 mmHg 58%
13:00 +21°C° 0 mm 4 mps 749 mmHg 57%
14:00 +21°C° 0 mm 4 mps 749 mmHg 56%
15:00 +20°C° 0 mm 4 mps 749 mmHg 62%
16:00 +19°C° 0 mm 3 mps 749 mmHg 68%
17:00 +17°C° 0 mm 3 mps 749 mmHg 74%
18:00 +16°C° 0 mm 3 mps 749 mmHg 74%
19:00 +16°C° 0 mm 3 mps 749 mmHg 75%
20:00 +14°C° 0 mm 3 mps 750 mmHg 75%
21:00 +13°C° 0 mm 3 mps 750 mmHg 76%
22:00 +12°C° 0 mm 3 mps 750 mmHg 77%
23:00 +11°C° 0 mm 3 mps 750 mmHg 78%

27 September, Sunday

Time Temperature Precipitation Wind Pressure Humidity
00:00 +11°C° 0 mm 3 mps 750 mmHg 79%
01:00 +10°C° 0 mm 3 mps 750 mmHg 80%
02:00 +10°C° 0 mm 3 mps 750 mmHg 81%
03:00 +10°C° 0 mm 3 mps 750 mmHg 82%
04:00 +10°C° 0 mm 3 mps 750 mmHg 82%
05:00 +10°C° 0 mm 3 mps 750 mmHg 83%
06:00 +10°C° 0 mm 3 mps 750 mmHg 80%
07:00 +11°C° 0 mm 3 mps 750 mmHg 77%
08:00 +12°C° 0 mm 3 mps 750 mmHg 75%
09:00 +14°C° 0 mm 4 mps 751 mmHg 70%
10:00 +15°C° 0 mm 4 mps 751 mmHg 66%
11:00 +18°C° 0 mm 4 mps 751 mmHg 61%
12:00 +19°C° 0 mm 4 mps 751 mmHg 59%
13:00 +19°C° 0 mm 4 mps 751 mmHg 57%
14:00 +20°C° 0 mm 4 mps 751 mmHg 54%
15:00 +19°C° 0 mm 4 mps 750 mmHg 57%
16:00 +17°C° 0 mm 4 mps 750 mmHg 60%
17:00 +16°C° 0 mm 3 mps 750 mmHg 63%
18:00 +14°C° 0 mm 3 mps 750 mmHg 65%
19:00 +13°C° 0 mm 3 mps 750 mmHg 66%
20:00 +12°C° 0 mm 3 mps 751 mmHg 68%
21:00 +11°C° 0 mm 3 mps 751 mmHg 69%
22:00 +11°C° 0 mm 3 mps 751 mmHg 70%
23:00 +10°C° 0 mm 3 mps 751 mmHg 71%
Show more